Weather History for Monroe, WI

Change the Weather History Date:

Tuesday, January 1, 2013

  Actual Average Record
Temperature  
Mean Temperature -12 °C -  
Max Temperature -9 °C -17 °C 5 °C (2007)
Min Temperature -15 °C - -17 °C (2014)
Degree Days  
Heating Degree Days 55    
Moisture  
Dew Point -17 °C    
Average Humidity 69    
Maximum Humidity 79    
Minimum Humidity 57    
Precipitation  
Precipitation 0.00 mm - - ()
Sea Level Pressure  
Sea Level Pressure 1021 hPa    
Wind  
Wind Speed 13 km/h (WNW)    
Max Wind Speed 24 km/h    
Max Gust Speed -    
Visibility 16 kilometers    
Events      
Averages and records for this station are not official NWS values.
T = Trace of Precipitation, MM = Missing Value Source: NWS Daily Summary

Daily Weather History Graph

Daily Weather History Graph

Search for Another Location

Airport:

Trip Planner

Search our weather history database for the weather conditions in past years. The results will help you decide how hot, cold, wet, or windy it might be!

Date:

Astronomy

Jan. 01, 2013 Rise Set
Actual Time 7:28 AM CST 4:35 PM CST
Civil Twilight 6:56 AM CST 5:07 PM CST
Nautical Twilight 6:21 AM CST 5:43 PM CST
Astronomical Twilight 5:46 AM CST 6:17 PM CST
Moon 9:13 PM CST 9:34 AM CST
Length of Visible Light 10h 11m
Length of Day
9h 07m
Waning Gibbous, 83% of the Moon is Illuminated
Jan 1
Waning Gibbous
Jan 4
Last Quarter
Jan 11
New
Jan 18
First Quarter
Jan 26
Full

Hourly Weather History & Observations

Time (CST) Temp. Windchill Dew Point Humidity Pressure Visibility Wind Dir Wind Speed Gust Speed Precip Events Conditions
12:15 AM -11.0 °C -17.9 °C -15.0 °C 73% 1020.2 hPa 16.1 km NNW 14.8 km/h / 4.1 m/s - N/A   Scattered Clouds
12:35 AM -11.0 °C -17.4 °C -15.0 °C 73% 1020.2 hPa 16.1 km NNW 13.0 km/h / 3.6 m/s - N/A   Scattered Clouds
12:55 AM -12.0 °C -18.0 °C -16.0 °C 73% 1020.2 hPa 16.1 km NNW 11.1 km/h / 3.1 m/s - N/A   Scattered Clouds
1:15 AM -12.0 °C -18.0 °C -16.0 °C 73% 1020.2 hPa 16.1 km NNW 11.1 km/h / 3.1 m/s - N/A   Clear
1:35 AM -12.0 °C -18.6 °C -16.0 °C 73% 1020.2 hPa 16.1 km NNW 13.0 km/h / 3.6 m/s - N/A   Clear
1:55 AM -12.0 °C -18.6 °C -16.0 °C 73% 1020.2 hPa 16.1 km NNW 13.0 km/h / 3.6 m/s - N/A   Clear
2:15 AM -13.0 °C -19.8 °C -16.0 °C 79% 1020.5 hPa 16.1 km NNW 13.0 km/h / 3.6 m/s - N/A   Clear
2:35 AM -13.0 °C -19.8 °C -17.0 °C 73% 1020.5 hPa 16.1 km North 13.0 km/h / 3.6 m/s - N/A   Clear
3:15 AM -13.0 °C -18.5 °C -17.0 °C 73% 1020.5 hPa 16.1 km NNW 9.3 km/h / 2.6 m/s - N/A   Clear
3:35 AM -13.0 °C -19.2 °C -17.0 °C 73% 1020.9 hPa 16.1 km NNW 11.1 km/h / 3.1 m/s - N/A   Clear
3:55 AM -13.0 °C -19.2 °C -17.0 °C 73% 1020.9 hPa 16.1 km NW 11.1 km/h / 3.1 m/s - N/A   Clear
4:15 AM -14.0 °C -18.9 °C -17.0 °C 79% 1021.2 hPa 16.1 km NNW 7.4 km/h / 2.1 m/s - N/A   Clear
4:35 AM -14.0 °C -19.7 °C -18.0 °C 72% 1021.2 hPa 16.1 km NNW 9.3 km/h / 2.6 m/s - N/A   Clear
4:55 AM -14.0 °C -19.7 °C -18.0 °C 72% 1021.2 hPa 16.1 km NNW 9.3 km/h / 2.6 m/s - N/A   Clear
5:15 AM -15.0 °C -21.6 °C -18.0 °C 78% 1021.2 hPa 16.1 km NW 11.1 km/h / 3.1 m/s - N/A   Clear
5:35 AM -15.0 °C -22.3 °C -18.0 °C 78% 1021.2 hPa 16.1 km NW 13.0 km/h / 3.6 m/s - N/A   Clear
5:55 AM -15.0 °C -21.6 °C -18.0 °C 78% 1021.6 hPa 16.1 km NNW 11.1 km/h / 3.1 m/s - N/A   Clear
6:15 AM -15.0 °C -22.3 °C -18.0 °C 78% 1021.9 hPa 16.1 km NNW 13.0 km/h / 3.6 m/s - N/A   Clear
6:35 AM -15.0 °C -22.3 °C -18.0 °C 78% 1021.9 hPa 16.1 km NNW 13.0 km/h / 3.6 m/s - N/A   Clear
6:55 AM -15.0 °C -21.6 °C -18.0 °C 78% 1022.2 hPa 16.1 km NW 11.1 km/h / 3.1 m/s - N/A   Clear
7:15 AM -15.0 °C -22.3 °C -18.0 °C 78% 1022.2 hPa 16.1 km NW 13.0 km/h / 3.6 m/s - N/A   Clear
7:35 AM -15.0 °C -21.6 °C -18.0 °C 78% 1022.6 hPa 16.1 km NW 11.1 km/h / 3.1 m/s - N/A   Clear
8:15 AM -15.0 °C -20.0 °C -18.0 °C 78% 1022.6 hPa 16.1 km NNW 7.4 km/h / 2.1 m/s - N/A   Clear
8:35 AM -15.0 °C -21.6 °C -18.0 °C 78% 1022.2 hPa 16.1 km NNW 11.1 km/h / 3.1 m/s - N/A   Clear
9:15 AM -14.0 °C -20.4 °C -18.0 °C 72% 1022.2 hPa 16.1 km NNW 11.1 km/h / 3.1 m/s - N/A   Clear
9:35 AM -13.0 °C -20.4 °C -18.0 °C 67% 1021.9 hPa 16.1 km NNW 14.8 km/h / 4.1 m/s - N/A   Clear
9:55 AM -13.0 °C -19.8 °C -18.0 °C 67% 1022.2 hPa 16.1 km North 13.0 km/h / 3.6 m/s - N/A   Clear
10:15 AM -12.0 °C -17.3 °C -17.0 °C 67% 1022.2 hPa 16.1 km North 9.3 km/h / 2.6 m/s - N/A   Clear
10:35 AM -12.0 °C -18.0 °C -17.0 °C 67% 1022.2 hPa 16.1 km NNW 11.1 km/h / 3.1 m/s - N/A   Clear
10:55 AM -11.0 °C - -17.0 °C 62% 1022.6 hPa 16.1 km Calm Calm - N/A   Clear
11:15 AM -11.0 °C -14.4 °C -17.0 °C 62% 1022.2 hPa 16.1 km NW 5.6 km/h / 1.5 m/s - N/A   Clear
11:35 AM -11.0 °C -14.4 °C -17.0 °C 62% 1022.2 hPa 16.1 km WNW 5.6 km/h / 1.5 m/s - N/A   Clear
11:55 AM -10.0 °C - -17.0 °C 57% 1021.9 hPa 16.1 km Calm Calm - N/A   Clear
12:15 PM -10.0 °C -14.2 °C -16.0 °C 62% 1021.9 hPa 16.1 km West 7.4 km/h / 2.1 m/s - N/A   Clear
12:35 PM -10.0 °C - -16.0 °C 62% 1021.6 hPa 16.1 km Calm Calm - N/A   Clear
12:55 PM -9.0 °C -13.0 °C -16.0 °C 58% 1021.6 hPa 16.1 km West 7.4 km/h / 2.1 m/s - N/A   Clear
1:15 PM -10.0 °C -15.0 °C -16.0 °C 62% 1021.2 hPa 16.1 km West 9.3 km/h / 2.6 m/s - N/A   Clear
1:35 PM -9.0 °C -14.4 °C -16.0 °C 58% 1021.2 hPa 16.1 km WSW 11.1 km/h / 3.1 m/s - N/A   Clear
2:15 PM -9.0 °C -12.1 °C -16.0 °C 58% 1020.9 hPa 16.1 km West 5.6 km/h / 1.5 m/s - N/A   Clear
2:35 PM -9.0 °C -15.0 °C -16.0 °C 58% 1020.9 hPa 16.1 km West 13.0 km/h / 3.6 m/s - N/A   Clear
2:55 PM -10.0 °C -16.7 °C -16.0 °C 62% 1020.9 hPa 16.1 km West 14.8 km/h / 4.1 m/s - N/A   Clear
3:15 PM -10.0 °C -16.7 °C -16.0 °C 62% 1020.9 hPa 16.1 km West 14.8 km/h / 4.1 m/s - N/A   Clear
3:35 PM -10.0 °C -16.2 °C -16.0 °C 62% 1020.9 hPa 16.1 km West 13.0 km/h / 3.6 m/s - N/A   Clear
3:55 PM -11.0 °C -17.9 °C -16.0 °C 67% 1020.9 hPa 16.1 km West 14.8 km/h / 4.1 m/s - N/A   Clear
4:15 PM -11.0 °C -18.4 °C -16.0 °C 67% 1020.9 hPa 16.1 km West 16.7 km/h / 4.6 m/s - N/A   Clear
4:35 PM -12.0 °C -19.6 °C -17.0 °C 67% 1020.9 hPa 16.1 km West 16.7 km/h / 4.6 m/s - N/A   Clear
4:55 PM -12.0 °C -19.1 °C -17.0 °C 67% 1020.5 hPa 16.1 km WSW 14.8 km/h / 4.1 m/s - N/A   Clear
5:15 PM -12.0 °C -19.6 °C -17.0 °C 67% 1020.5 hPa 16.1 km WSW 16.7 km/h / 4.6 m/s - N/A   Clear
5:35 PM -12.0 °C -20.4 °C -17.0 °C 67% 1020.5 hPa 16.1 km West 20.4 km/h / 5.7 m/s - N/A   Clear
5:55 PM -13.0 °C -21.7 °C -17.0 °C 73% 1020.5 hPa 16.1 km West 20.4 km/h / 5.7 m/s - N/A   Clear
6:15 PM -12.0 °C -20.0 °C -17.0 °C 67% 1020.9 hPa 16.1 km West 18.5 km/h / 5.1 m/s - N/A   Clear
6:35 PM -13.0 °C -20.4 °C -17.0 °C 73% 1020.5 hPa 16.1 km West 14.8 km/h / 4.1 m/s - N/A   Clear
6:55 PM -13.0 °C -19.8 °C -17.0 °C 73% 1020.5 hPa 16.1 km West 13.0 km/h / 3.6 m/s - N/A   Clear
7:15 PM -13.0 °C -20.8 °C -18.0 °C 67% 1020.5 hPa 16.1 km West 16.7 km/h / 4.6 m/s - N/A   Clear
7:35 PM -13.0 °C -21.7 °C -18.0 °C 67% 1020.5 hPa 16.1 km West 20.4 km/h / 5.7 m/s - N/A   Clear
7:55 PM -13.0 °C -21.3 °C -18.0 °C 67% 1020.5 hPa 16.1 km West 18.5 km/h / 5.1 m/s - N/A   Clear
8:15 PM -13.0 °C -21.3 °C -18.0 °C 67% 1020.5 hPa 16.1 km WSW 18.5 km/h / 5.1 m/s - N/A   Clear
8:35 PM -13.0 °C -20.8 °C -18.0 °C 67% 1020.5 hPa 16.1 km WSW 16.7 km/h / 4.6 m/s - N/A   Clear
8:55 PM -13.0 °C -21.3 °C -18.0 °C 67% 1020.2 hPa 16.1 km WSW 18.5 km/h / 5.1 m/s - N/A   Clear
9:15 PM -13.0 °C -22.1 °C -18.0 °C 67% 1019.9 hPa 16.1 km WSW 22.2 km/h / 6.2 m/s - N/A   Clear
9:35 PM -13.0 °C -21.3 °C -18.0 °C 67% 1019.9 hPa 16.1 km WSW 18.5 km/h / 5.1 m/s - N/A   Clear
9:55 PM -14.0 °C -23.0 °C -18.0 °C 72% 1019.9 hPa 16.1 km WSW 20.4 km/h / 5.7 m/s - N/A   Clear
10:15 PM -13.0 °C -22.1 °C -18.0 °C 67% 1020.2 hPa 16.1 km WSW 22.2 km/h / 6.2 m/s - N/A   Scattered Clouds
10:35 PM -13.0 °C -22.4 °C -17.0 °C 73% 1019.9 hPa 16.1 km West 24.1 km/h / 6.7 m/s - N/A   Overcast
10:55 PM -12.0 °C -20.4 °C -17.0 °C 67% 1019.9 hPa 16.1 km WSW 20.4 km/h / 5.7 m/s - N/A   Overcast
11:15 PM -12.0 °C -20.4 °C -17.0 °C 67% 1019.9 hPa 16.1 km WSW 20.4 km/h / 5.7 m/s - N/A   Overcast
11:35 PM -12.0 °C -20.4 °C -17.0 °C 67% 1020.2 hPa 16.1 km WSW 20.4 km/h / 5.7 m/s - N/A   Overcast
11:55 PM -12.0 °C -20.0 °C -17.0 °C 67% 1019.9 hPa 16.1 km WSW 18.5 km/h / 5.1 m/s - N/A   Overcast